Wind_Speed
7 8 9 9 10 10 12 10 7 5 3 9 20 19 16 12 11 13 15 14 16 17 19 21 19 17 15 18 20 23 27 28 29 31 34 38 41 43 44 44 44 45 45 44
7 8 11 11 11 10 6 5 5 5 6 5 12 21 19 20 17 14 13 15 17 20 22 23 20 18 17 21 22 23 26 29 30 34 37 41 44 46 49 50 49 49 51 52
9 11 10 12 11 8 5 5 5 6 7 9 10 13 20 21 19 19 18 20 24 25 24 25 23 17 19 21 24 26 29 32 32 35 39 43 47 49 53 55 56 56 56 55
9 10 11 13 11 8 6 5 4 6 6 8 11 10 17 19 19 21 22 21 24 26 26 27 21 17 17 21 25 28 32 32 34 38 43 46 49 54 57 61 63 63 62 58
9 13 13 13 10 8 7 7 7 7 8 9 12 8 13 18 22 24 17 14 15 22 25 24 18 18 19 23 26 29 33 34 36 42 45 49 53 58 64 66 67 66 63 58
13 12 13 13 11 9 5 8 7 8 8 7 11 12 9 14 16 15 13 9 6 11 17 15 17 19 22 25 28 31 35 36 40 43 47 52 57 63 67 68 68 65 60 58
16 15 15 12 11 10 8 8 2 3 4 2 4 5 12 9 10 9 8 4 1 6 10 14 17 20 24 28 31 34 37 38 42 46 52 57 62 65 68 66 64 63 60 57
10 10 16 18 18 13 12 12 5 3 2 2 5 6 3 6 5 5 4 4 5 9 11 16 20 24 28 31 33 35 37 41 46 52 58 61 63 63 63 64 64 61 56 53
7 9 9 12 16 17 13 13 12 5 2 3 3 7 8 9 4 3 2 4 7 12 15 19 24 27 30 32 33 36 41 46 52 58 61 62 61 62 64 64 58 50 45 40
10 5 8 11 13 13 14 11 5 5 3 3 3 5 6 1 2 3 5 6 10 14 18 23 27 29 31 32 35 40 45 51 57 60 61 60 60 60 57 49 39 34 28 27
23 19 12 11 15 15 17 14 11 7 6 4 2 4 3 1 4 4 7 10 15 18 22 27 29 30 31 34 38 43 49 55 57 59 56 56 55 49 39 34 32 30 32 31
20 15 19 19 19 20 20 19 16 10 7 9 5 12 17 15 6 6 9 16 20 22 26 29 27 28 32 36 41 48 54 56 56 53 52 51 46 38 35 34 34 35 31 28
13 16 14 11 16 21 21 24 23 22 20 16 5 10 11 11 14 12 15 16 21 25 23 22 26 30 34 39 46 50 53 51 50 50 48 44 40 32 34 28 32 30 26 23
17 16 21 24 23 18 24 27 25 23 15 17 23 22 19 15 16 17 15 16 17 18 19 23 28 32 37 45 48 50 48 48 47 45 43 38 34 30 29 28 30 28 28 26
22 22 22 26 25 25 22 20 20 21 22 16 15 16 14 14 15 17 17 15 15 16 19 25 31 36 42 44 46 44 45 46 45 42 39 35 31 25 27 30 26 27 28 25
27 21 22 24 25 22 21 19 15 18 21 23 20 22 18 18 17 13 12 12 13 17 22 28 33 37 41 42 40 42 44 44 41 38 37 29 24 25 26 26 28 27 26 28
22 24 24 17 21 20 19 23 22 22 23 22 21 20 20 15 11 11 11 11 15 19 25 29 34 37 37 36 40 42 44 42 39 35 29 24 20 24 25 24 30 25 24 27
20 20 21 17 16 10 17 16 15 20 15 10 8 11 11 9 9 9 10 12 17 21 25 30 32 32 33 37 40 43 42 38 33 28 19 19 18 23 24 24 22 23 24 25
21 21 15 15 18 15 12 15 16 15 12 11 11 9 9 11 9 8 10 15 18 22 26 29 29 30 34 38 41 41 37 32 28 20 14 14 21 21 22 21 21 21 22 25
17 16 20 15 15 9 15 15 14 13 13 14 10 8 6 7 6 9 11 15 18 23 25 25 27 31 35 39 39 37 31 28 21 11 13 17 20 18 20 21 22 22 21 22
17 25 18 24 17 13 12 15 16 11 8 5 8 10 9 9 9 10 11 15 20 21 21 23 27 31 35 37 35 31 27 22 16 12 15 16 18 20 19 20 19 18 19 18
7 8 17 17 10 10 14 18 18 6 11 9 11 12 11 9 8 10 13 16 16 17 20 23 27 31 34 33 30 26 22 20 17 14 16 18 20 20 19 17 14 17 19 14
7 12 7 15 15 9 22 20 15 9 11 8 10 12 10 8 9 11 12 12 13 16 20 23 26 29 31 31 26 21 19 18 15 15 17 20 22 22 23 23 26 27 26 22
10 11 10 12 20 14 13 14 16 12 10 12 14 12 8 8 9 7 8 9 13 17 19 22 25 27 30 30 22 18 16 16 22 23 21 19 19 21 20 19 20 19 19 24
12 12 15 16 10 18 18 14 13 14 15 15 13 9 7 5 4 5 7 11 14 15 17 21 22 25 29 28 20 17 17 19 20 20 17 17 17 18 18 19 20 20 19 20
13 17 17 13 12 18 15 20 16 13 15 12 7 7 4 1 3 7 9 11 13 14 16 18 19 21 26 30 20 21 22 18 19 19 18 19 19 19 19 20 21 22 21 22
Wind_Direction
188 185 184 179 184 194 189 188 192 210 210 231 225 228 224 223 208 213 223 229 242 249 251 260 269 274 293 308 318 332 339 332 331 327 328 330 329 329 331 330 326 322 318 315
191 190 171 174 169 176 184 208 223 248 259 234 227 231 228 235 239 244 249 248 252 249 255 263 266 278 301 312 322 326 325 325 324 324 323 324 324 325 325 322 320 318 315 313
198 181 184 191 189 190 203 225 222 222 234 239 236 229 228 232 234 243 251 249 248 248 259 260 264 282 298 322 316 316 320 323 320 319 320 320 320 320 319 317 315 314 312 310
212 205 202 196 199 200 227 228 229 206 221 234 218 248 235 241 248 258 260 255 260 247 245 249 262 280 298 318 315 314 319 318 317 317 317 318 316 315 315 315 313 312 311 308
207 202 193 196 205 210 236 231 230 247 247 253 252 258 250 248 255 258 253 255 252 238 239 247 263 279 298 309 311 311 317 314 312 314 315 314 313 312 312 311 309 309 309 307
217 210 203 210 210 213 237 214 238 261 260 258 249 230 264 234 244 237 242 243 230 231 238 255 274 288 298 303 304 307 313 310 310 312 313 311 309 309 309 309 308 307 306 306
216 209 207 202 206 211 234 229 245 215 199 271 192 228 253 247 239 241 234 232 240 239 255 271 287 291 294 298 300 306 309 309 310 311 310 309 309 309 308 307 306 305 306 305
209 215 219 227 231 227 236 225 203 217 214 51 212 244 263 238 250 248 214 222 251 259 274 284 285 287 290 295 300 305 307 309 310 310 310 310 310 310 310 308 306 305 304 304
218 232 231 230 232 229 225 221 230 232 280 269 235 274 282 264 272 200 279 252 252 261 275 278 282 284 289 295 300 305 308 309 310 312 312 313 315 314 313 311 308 305 304 307
238 236 222 241 226 224 222 228 189 202 194 250 237 272 239 133 62 236 288 251 256 270 279 281 282 287 293 297 303 307 309 311 313 314 316 319 318 319 319 323 321 315 315 311
238 236 245 231 224 218 207 211 226 233 205 218 268 255 210 276 311 273 255 250 258 272 279 280 283 289 294 301 307 308 309 312 315 316 319 319 321 324 330 338 336 332 327 317
239 229 227 230 242 233 230 238 245 228 231 219 239 261 265 272 254 272 268 250 257 268 279 277 283 290 297 305 306 308 311 315 316 319 321 322 325 325 328 334 336 326 315 323
259 216 216 227 231 231 233 238 242 245 247 247 218 255 268 269 282 275 282 269 266 270 276 278 287 296 303 304 307 311 315 317 319 321 324 325 328 327 329 345 346 347 341 327
248 237 223 218 231 232 225 239 235 236 239 252 249 264 263 264 275 279 279 279 272 269 277 287 293 298 301 306 311 316 318 320 323 325 324 324 325 332 342 342 341 344 343 341
241 242 244 243 246 244 246 244 233 239 245 240 267 255 262 270 276 284 281 267 267 275 284 292 296 298 303 311 316 319 321 324 326 325 323 326 332 337 337 337 342 340 343 349
238 238 239 244 240 236 230 233 230 241 248 252 256 270 276 278 287 269 255 258 269 282 292 296 301 307 312 318 321 324 325 326 327 326 324 330 333 336 335 342 343 337 335 342
230 235 235 227 225 221 236 228 237 247 252 257 263 276 277 276 245 234 242 262 284 293 300 305 309 316 322 325 326 327 329 329 328 327 331 333 341 345 347 349 347 350 353 357
230 233 229 227 204 225 246 245 234 240 246 248 269 280 267 233 219 230 261 280 293 300 307 312 320 326 329 329 329 331 330 331 333 337 341 346 351 353 348 345 351 355 5 8
244 231 225 224 218 246 251 220 224 230 234 255 269 254 211 197 215 249 271 288 300 308 313 321 330 333 333 332 333 333 335 339 343 347 352 347 358 355 352 355 3 15 13 13
251 238 222 236 232 228 249 242 222 228 252 278 253 214 216 210 225 270 287 299 306 314 322 331 336 337 336 337 339 340 344 349 349 1 7 0 1 355 360 14 10 17 16 21
245 237 227 222 226 234 241 209 200 202 262 284 222 223 219 223 249 278 290 304 313 322 334 340 340 341 340 344 346 349 356 355 1 10 7 11 11 14 18 21 20 25 23 31
237 224 215 223 214 236 197 192 195 209 282 262 214 211 215 229 262 273 298 311 323 337 344 343 345 345 350 354 357 3 6 15 18 20 31 31 31 30 29 33 42 51 49 55
247 240 216 211 207 186 190 191 230 243 253 202 182 203 206 231 262 290 308 327 340 351 349 349 352 353 1 6 6 11 22 31 41 49 51 53 46 48 54 58 55 54 51 57
249 266 251 261 229 218 199 205 204 216 229 186 174 183 208 247 280 310 337 358 2 358 355 356 357 0 9 13 11 23 39 53 62 62 65 51 50 48 51 46 45 50 55 59
255 267 271 282 251 219 224 181 187 194 167 168 173 190 230 270 315 347 15 13 6 2 0 3 3 11 17 22 27 43 57 62 46 45 44 50 50 53 55 56 58 61 61 64
265 268 248 257 288 203 193 183 174 180 165 171 189 204 235 317 21 34 19 6 3 7 6 8 11 24 31 36 48 70 53 48 44 42 45 45 46 49 50 51 54 55 55 54
Height
3158 3160 3161 3162 3164 3166 3168 3169 3170 3171 3172 3173 3173 3175 3177 3179 3180 3181 3182 3182 3182 3182 3183 3182 3182 3181 3181 3180 3177 3174 3170 3166 3162 3158 3155 3150 3145 3141 3136 3131 3125 3120 3114 3110
3158 3159 3160 3161 3163 3165 3167 3167 3168 3168 3169 3170 3170 3172 3173 3174 3176 3176 3177 3177 3177 3178 3178 3178 3178 3177 3177 3175 3172 3169 3165 3161 3156 3152 3147 3142 3138 3133 3128 3123 3119 3114 3107 3100
3156 3158 3158 3160 3161 3163 3164 3165 3166 3167 3166 3167 3168 3168 3168 3169 3171 3172 3172 3172 3172 3173 3174 3174 3173 3174 3173 3170 3167 3164 3160 3155 3151 3146 3141 3135 3129 3123 3118 3113 3107 3103 3097 3091
3155 3155 3157 3157 3159 3161 3162 3162 3163 3164 3165 3166 3166 3164 3164 3164 3166 3166 3166 3167 3166 3168 3169 3169 3170 3171 3168 3166 3163 3159 3154 3150 3145 3140 3134 3128 3121 3114 3107 3100 3093 3087 3082 3076
3153 3153 3154 3156 3157 3158 3160 3160 3161 3162 3162 3163 3164 3165 3160 3161 3161 3160 3161 3161 3161 3163 3165 3166 3168 3165 3163 3160 3157 3153 3149 3144 3139 3134 3127 3120 3113 3105 3096 3089 3080 3074 3067 3061
3150 3151 3152 3154 3155 3156 3157 3158 3159 3159 3159 3159 3159 3161 3155 3155 3156 3157 3158 3158 3158 3160 3162 3164 3163 3161 3158 3156 3152 3148 3143 3138 3133 3127 3120 3113 3104 3094 3085 3076 3066 3059 3052 3046
3148 3149 3150 3151 3153 3154 3156 3157 3158 3158 3157 3155 3155 3157 3152 3152 3153 3154 3154 3154 3156 3158 3159 3159 3158 3156 3153 3150 3147 3142 3137 3132 3126 3119 3112 3103 3094 3083 3072 3062 3052 3043 3036 3030
3146 3148 3148 3149 3150 3152 3152 3154 3155 3155 3154 3154 3155 3152 3150 3149 3150 3151 3151 3152 3153 3155 3155 3154 3153 3150 3148 3145 3141 3136 3130 3124 3118 3111 3102 3092 3081 3070 3059 3048 3037 3028 3020 3013
3143 3145 3144 3146 3146 3150 3149 3150 3151 3152 3153 3154 3151 3149 3149 3148 3149 3149 3149 3150 3151 3151 3151 3150 3148 3145 3142 3138 3134 3128 3123 3116 3108 3100 3089 3079 3067 3056 3044 3032 3021 3012 3006 3001
3140 3143 3144 3143 3144 3145 3147 3148 3150 3150 3151 3149 3148 3147 3146 3147 3148 3148 3148 3148 3148 3147 3146 3144 3142 3139 3136 3131 3126 3120 3114 3106 3097 3087 3076 3065 3055 3043 3031 3018 3008 3003 2998 2994
3136 3139 3142 3142 3142 3142 3144 3144 3146 3147 3148 3147 3146 3144 3144 3144 3145 3145 3145 3145 3143 3142 3141 3138 3136 3133 3129 3124 3119 3112 3105 3097 3087 3076 3066 3056 3045 3034 3022 3013 3005 2999 2993 2988
3130 3132 3134 3137 3137 3138 3139 3140 3142 3143 3144 3143 3143 3142 3140 3140 3141 3141 3141 3139 3138 3137 3135 3133 3131 3127 3123 3117 3111 3104 3095 3087 3076 3066 3057 3046 3035 3026 3018 3010 3002 2994 2987 2983
3126 3126 3129 3131 3134 3133 3134 3135 3136 3136 3137 3137 3139 3138 3136 3136 3137 3137 3136 3135 3134 3132 3130 3129 3126 3121 3116 3110 3103 3096 3087 3077 3067 3058 3048 3038 3029 3021 3014 3006 2999 2990 2983 2979
3122 3121 3121 3121 3123 3125 3126 3128 3130 3132 3133 3132 3131 3131 3132 3132 3133 3132 3131 3130 3128 3127 3126 3124 3120 3115 3109 3103 3096 3087 3078 3068 3059 3049 3040 3031 3023 3017 3010 3003 2996 2989 2982 2976
3117 3115 3116 3117 3119 3119 3120 3122 3124 3126 3126 3128 3127 3126 3128 3128 3128 3127 3126 3125 3124 3124 3122 3119 3115 3110 3103 3096 3088 3079 3069 3060 3050 3041 3033 3025 3019 3013 3007 3000 2994 2987 2980 2973
3109 3110 3111 3113 3114 3115 3115 3116 3119 3121 3121 3121 3122 3121 3123 3123 3123 3122 3121 3121 3121 3120 3118 3114 3108 3102 3095 3087 3079 3071 3062 3053 3043 3034 3027 3020 3015 3009 3003 2998 2992 2984 2977 2971
3104 3105 3107 3107 3109 3111 3110 3111 3114 3115 3116 3117 3117 3118 3117 3117 3117 3117 3118 3119 3118 3116 3112 3107 3102 3095 3088 3080 3072 3064 3054 3044 3036 3028 3021 3016 3012 3007 3001 2996 2989 2983 2976 2970
3098 3100 3103 3104 3105 3105 3103 3105 3109 3110 3111 3112 3112 3113 3113 3113 3115 3116 3116 3116 3114 3111 3106 3102 3096 3089 3082 3074 3066 3057 3047 3038 3029 3023 3018 3014 3010 3005 3000 2995 2988 2983 2977 2970
3094 3095 3098 3100 3100 3097 3096 3099 3103 3105 3108 3107 3108 3108 3109 3111 3113 3114 3113 3112 3109 3106 3101 3096 3091 3084 3077 3069 3060 3050 3041 3031 3025 3020 3016 3012 3009 3005 3000 2994 2988 2983 2978 2972
3090 3091 3092 3096 3094 3089 3093 3096 3099 3101 3102 3103 3104 3106 3108 3110 3111 3110 3109 3107 3104 3100 3096 3092 3086 3080 3072 3063 3054 3044 3035 3028 3023 3019 3017 3013 3009 3004 3000 2994 2989 2984 2980 2975
3082 3085 3085 3088 3088 3087 3089 3092 3095 3101 3103 3099 3101 3104 3106 3108 3108 3107 3105 3103 3100 3096 3092 3087 3082 3075 3067 3058 3048 3040 3033 3028 3023 3020 3018 3014 3010 3005 3000 2995 2992 2987 2982 2978
3080 3080 3080 3083 3084 3086 3085 3089 3094 3097 3098 3097 3099 3101 3103 3104 3104 3103 3101 3099 3096 3092 3088 3084 3078 3071 3063 3055 3046 3039 3034 3028 3025 3023 3020 3015 3011 3006 3002 2999 2995 2991 2987 2982
3077 3076 3077 3077 3078 3080 3082 3084 3088 3091 3095 3096 3097 3098 3100 3101 3101 3099 3097 3095 3092 3089 3085 3080 3075 3069 3062 3053 3046 3040 3035 3032 3029 3025 3021 3018 3015 3011 3007 3004 3000 2995 2992 2987
3073 3073 3073 3073 3076 3076 3079 3082 3086 3089 3092 3094 3095 3096 3098 3098 3097 3096 3094 3092 3089 3086 3082 3078 3073 3067 3060 3053 3048 3043 3040 3037 3033 3029 3026 3023 3019 3015 3012 3007 3004 3001 2998 2994
3071 3071 3070 3069 3070 3072 3075 3079 3084 3087 3089 3091 3092 3094 3095 3095 3094 3093 3091 3089 3087 3084 3081 3077 3072 3066 3060 3054 3050 3047 3045 3042 3038 3034 3032 3028 3024 3020 3016 3012 3008 3005 3002 2999
3066 3067 3067 3068 3069 3068 3072 3076 3081 3086 3087 3089 3091 3091 3092 3093 3092 3091 3089 3088 3086 3083 3080 3076 3072 3068 3063 3058 3054 3052 3051 3047 3042 3039 3036 3032 3028 3024 3020 3016 3012 3009 3006 3003